Location: Unspecified
(0.0000°N, 0.0000°E)
Time: 04:05:48
(UTC+00:00)

Envisat - Visible Passes

Search period start: 24 September 2018 00:00
Search period end: 04 October 2018 00:00
Orbit: 764 x 766 km, 98.2° (Epoch: 23 September)

Date Brightness Start Highest point End Pass type
(mag) Time Alt. Az. Time Alt. Az. Time Alt. Az.
24 Sep 3.1 19:08:32 10° SSE 19:13:26 49° ENE 19:18:18 10° N visible
25 Sep 4.3 18:33:31 10° ESE 18:36:48 17° ENE 18:40:04 10° NE visible
25 Sep 4.9 20:11:18 10° SSW 20:15:32 27° WSW 20:19:47 10° NW visible
26 Sep 3.0 19:33:50 10° S 19:38:55 79° WSW 19:43:58 10° NNW visible
27 Sep 3.5 18:57:39 10° SE 19:02:17 36° ENE 19:06:53 10° NNE visible
27 Sep 5.8 20:38:47 10° SW 20:41:00 13° WSW 20:43:14 10° WNW visible
28 Sep 4.6 18:23:33 10° ESE 18:25:40 13° ENE 18:27:45 10° NE visible
28 Sep 4.3 19:59:45 10° SSW 20:04:24 37° WSW 20:09:02 10° NW visible
29 Sep 2.8 19:22:41 10° SSE 19:27:46 77° ENE 19:32:49 10° N visible
30 Sep 3.8 18:46:55 10° SE 18:51:08 27° ENE 18:55:20 10° NNE visible
30 Sep 5.5 20:26:31 10° SW 20:29:52 18° WSW 20:33:13 10° WNW visible
01 Oct 3.7 19:48:21 10° S 19:53:15 50° WSW 19:58:09 10° NNW visible
02 Oct 3.0 19:11:39 10° SSE 19:16:37 56° ENE 19:21:33 10° N visible
03 Oct 4.2 18:36:23 10° ESE 18:39:59 20° ENE 18:43:35 10° NNE visible
03 Oct 5.0 20:14:41 10° SSW 20:18:44 24° WSW 20:22:46 10° NW visible
